FENGYUN 1C DEB

Satellite information

Favourite Embed

Satellite Type and Status

DEBRISIN ORBIT

Key statistics

Satellite FENGYUN 1C DEB at a glance.

Uptime

9615

Days in orbit

Revolutions

≈ 13.9

Per day

Orbit

SSO

Sun Synchronous Orbit

Inclination

98.0

Latest

Satellite identification and parameters

Extended collection of information and parameters for FENGYUN 1C DEB.

Object identification

Identified? True

Debris? True

Object name: FENGYUN 1C DEB

International designator: 1999-025TB

Object number (NORAD): 30146

Object ID (CCSDS): 30146

Country: PEOPLES REPUBLIC OF CHINA (PRC)

Current information (Y/N): Y

RCS size: SMALL

Orbital parameters

Period: 103.868 minutes

Inclination: 98.0165 deg

SMA: 7319.522 km

Apoapsis: 1072.622 km

Periapsis: 810.152 km

RAAN: 60.8116 deg

Eccentricy: 0.01792941

Argument of periapsis: 40.2037 deg

Mean anomaly: 82.6403 deg

Mean motion: 13.86368513 rev/day

Mean motion (dot): 0.00000905 rev/day2

B* drag term: 0.00071521722 1/REarth

Two-line elements (TLE)

Creation date: Sept. 4, 2025, 10:13 a.m.

Reference frame: TEME

Reference center: EARTH

Epoch: Sept. 4, 2025, 1:24 a.m. UTC

TLE line 0: 0 FENGYUN 1C DEB

TLE line 1: 1 30146U 99025TB 25247.05865463 .00000905 00000-0 71522-3 0 9990

TLE line 2: 2 30146 98.0165 60.8116 0179294 40.2037 82.6403 13.86368513940364

Live tracking on map

Real-time ground track for satellite FENGYUN 1C DEB.

In-orbit conjunctions

A list of the most updated potential collisions computed for object FENGYUN 1C DEB.

Target Orbit TCA Probability of collision Miss distance Type
CZ-6A DEB LEO 2024-12-15 00:16:37 0.0003670074 198.0 (m) DEBRIS
SL-16 DEB LEO 2024-10-04 23:16:59 0.0003546348 106.0 (m) DEBRIS
FENGYUN 1C DEB SSO 2024-09-25 05:51:46 0.0002176304 523.0 (m) DEBRIS

Associated space launch

Chinese polar orbiting meteorological satellite

FENGYUN 1C DEB was lifted into orbit during the mission ‘Long March 4B | Feng Yun 1C’, on board a Long March 4B space rocket.

The launch took place on May 10, 1999, 1:33 a.m. from Launch Complex 7.

For more information about the launch, click the button.

Launch to space Long March 4B | Feng Yun 1C
Long March 4B | Feng Yun 1C

Agency: N/A

Status: Launch Successful

Launch date: May 10, 1999, 1:33 a.m. UTC

Rocket: Long March 4B

Launch pad: Launch Complex 7

Location: Taiyuan Satellite Launch Center, People's Republic of China

...

Latest news about this satellite

There are no fresh news available about this satellite. Check back as we update our databases every day.


Newsletter sign-up

Weekly statistics, charts and insights to help you stay on top of the space industry.